Torna al catalogo

STARLINK-4041

AttivoComunicazioniVLEO
NORAD 52695·PAYLOAD·🇺🇸 United States

Lanciato May 18, 2022 da Cape Canaveral Space Force Station

Loading…

Prossimi Passaggi (prossime 24 ore)

TLE

AggiornatoSource: CelesTrak SupGP

Epoca: Sep 14, 2026, 13:48 UTC

1 52695C 22053AR  26257.57548611 -.00020358  00000+0 -12771-2 0  2574
2 52695  53.1599  20.3491 0001265  83.1294 108.4047 15.08831185    16

Traccia STARLINK-4041 in tempo reale con AllMySat

Download on the App Store